Date String (YYYY-MM-DD hh:mm:ss) UTC,Instrument flags,Ambient pressure (hPa),Sample flow (lpm),Bypass flow (lpm),Sample temperature (°C),Ambient temperature (°C),ASC tube jacket temperature (°C),LED temperature (°C),Box temperature (°C),Sample RH (%),Span deviation,Mass concentration (μg/m³),Mass concentration (μg/m³),Mass concentration (μg/m³)
DateTimeUTC,F1_M11,P_M11,Q1_M11,Q2_M11,T1_M11,T2_M11,T3_M11,T4_M11,T5_M11,U1_M11,ZSPAN_M11,X0_M11,X2_M11,X1_M11
2022-02-28 13:00:00,,0831.4,5.00,0.00,22.0,21.3,00.0,31.0,23.7,05.4,0000.0,0001.28,0001.09,0001.03
2022-02-28 13:01:00,,0831.4,5.00,0.00,21.9,21.3,00.0,31.0,23.7,05.4,0000.0,0001.29,0001.11,0001.05
2022-02-28 13:02:00,,0831.4,5.01,0.00,21.9,21.3,00.0,31.0,23.7,05.3,0000.0,0001.29,0001.11,0001.06
2022-02-28 13:03:00,,0831.3,5.00,0.00,21.9,21.2,00.0,31.0,23.6,05.3,0000.0,0001.24,0001.10,0001.06
2022-02-28 13:04:00,,0831.2,4.98,0.00,21.9,21.2,00.0,31.0,23.6,05.3,0000.0,0001.26,0001.11,0001.06
2022-02-28 13:05:00,,0831.2,5.00,0.00,21.9,21.2,00.0,31.0,23.6,05.5,0000.0,0001.28,0001.12,0001.06
2022-02-28 13:06:00,,0831.2,5.00,0.00,21.8,21.2,00.0,31.0,23.6,05.5,0000.0,0001.27,0001.11,0001.06
2022-02-28 13:07:00,,0831.2,5.00,0.00,21.8,21.2,00.0,30.9,23.6,05.6,0000.0,0001.29,0001.11,0001.04
2022-02-28 13:08:00,,0831.2,5.00,0.00,21.8,21.2,00.0,30.9,23.6,05.5,0000.0,0001.25,0001.08,0001.01
2022-02-28 13:09:00,,0831.1,4.98,0.00,21.8,21.1,00.0,30.9,23.5,05.4,0000.0,0001.23,0001.05,0000.98
2022-02-28 13:10:00,,0831.1,5.01,0.00,21.8,21.4,00.0,30.9,23.6,05.4,0000.0,0001.17,0001.01,0000.94
2022-02-28 13:11:00,,0831.1,5.01,0.00,21.9,22.1,00.0,31.0,23.8,05.4,0000.0,0001.13,0000.98,0000.91
2022-02-28 13:12:00,,0831.1,5.00,0.00,22.1,22.8,00.0,31.0,24.1,05.8,0000.0,0001.11,0000.95,0000.88
2022-02-28 13:13:00,,0831.2,5.01,0.00,22.2,22.7,00.0,31.0,24.1,05.6,0000.0,0001.13,0000.96,0000.88
2022-02-28 13:14:00,,0831.2,4.98,0.00,22.2,22.5,00.0,31.0,24.1,05.3,0000.0,0001.12,0000.96,0000.88
2022-02-28 13:15:00,,0831.2,5.00,0.00,22.2,22.4,00.0,31.1,24.1,05.2,0000.0,0001.11,0000.95,0000.87
2022-02-28 13:16:00,,0831.1,5.02,0.00,22.2,22.2,00.0,31.1,24.1,05.3,0000.0,0001.10,0000.94,0000.87
2022-02-28 13:17:00,,0831.0,4.99,0.00,22.2,22.1,00.0,31.1,24.1,05.3,0000.0,0001.12,0000.95,0000.87
2022-02-28 13:18:00,,0831.0,5.01,0.00,22.2,21.9,00.0,31.1,24.0,05.3,0000.0,0001.06,0000.91,0000.86
2022-02-28 13:19:00,,0831.0,4.99,0.00,22.2,21.8,00.0,31.1,24.0,05.3,0000.0,0001.18,0000.91,0000.85
2022-02-28 13:20:00,,0831.0,5.01,0.00,22.1,21.7,00.0,31.1,23.9,05.3,0000.0,0001.83,0000.91,0000.85
2022-02-28 13:21:00,,0831.0,5.01,0.00,22.1,21.6,00.0,31.1,23.9,05.3,0000.0,0002.34,0000.91,0000.85
2022-02-28 13:22:00,,0831.0,5.01,0.00,22.1,21.5,00.0,31.1,23.9,05.2,0000.0,0002.53,0000.96,0000.87
2022-02-28 13:23:00,,0831.0,4.99,0.00,22.1,21.4,00.0,31.1,23.8,05.2,0000.0,0002.63,0001.01,0000.89
2022-02-28 13:24:00,,0831.0,5.01,0.00,22.0,21.4,00.0,31.1,23.8,05.2,0000.0,0002.66,0001.02,0000.88
2022-02-28 13:25:00,,0831.0,5.00,0.00,22.0,21.4,00.0,31.1,23.8,05.2,0000.0,0003.27,0001.02,0000.87
2022-02-28 13:26:00,,0831.0,5.00,0.00,22.0,21.4,00.0,31.1,23.7,05.2,0000.0,0003.83,0001.02,0000.87
2022-02-28 13:27:00,,0831.0,5.00,0.00,22.0,21.3,00.0,31.1,23.7,05.2,0000.0,0003.84,0001.02,0000.87
2022-02-28 13:28:00,,0831.1,5.00,0.00,22.0,21.3,00.0,31.1,23.7,05.2,0000.0,0003.81,0001.00,0000.86
2022-02-28 13:29:00,,0831.1,4.99,0.00,22.0,21.3,00.0,31.1,23.7,05.2,0000.0,0003.79,0001.00,0000.86
2022-02-28 13:30:00,,0831.2,5.00,0.00,22.0,21.3,00.0,31.1,23.7,05.3,0000.0,0003.75,0001.03,0000.87
2022-02-28 13:31:00,,0831.2,5.00,0.00,21.9,21.2,00.0,31.0,23.6,05.3,0000.0,0003.46,0001.03,0000.87
2022-02-28 13:32:00,,0831.1,5.00,0.00,21.9,21.2,00.0,31.0,23.6,05.3,0000.0,0002.65,0001.03,0000.87
2022-02-28 13:33:00,,0831.1,5.01,0.00,21.9,21.2,00.0,31.0,23.6,05.5,0000.0,0002.43,0001.01,0000.87
2022-02-28 13:34:00,,0831.1,4.99,0.00,21.9,21.2,00.0,31.0,23.6,05.3,0000.0,0002.36,0000.97,0000.87
2022-02-28 13:35:00,,0831.1,4.99,0.00,21.9,21.2,00.0,31.0,23.6,05.3,0000.0,0002.29,0000.94,0000.86
2022-02-28 13:36:00,,0831.0,5.01,0.00,21.9,21.2,00.0,31.0,23.6,05.4,0000.0,0002.38,0000.95,0000.87
2022-02-28 13:37:00,,0831.1,5.00,0.00,21.9,21.2,00.0,31.0,23.5,05.3,0000.0,0001.45,0000.94,0000.86
2022-02-28 13:38:00,,0831.0,5.00,0.00,21.8,21.2,00.0,31.0,23.5,05.3,0000.0,0001.48,0000.94,0000.85
2022-02-28 13:39:00,,0831.0,5.01,0.00,21.8,21.3,00.0,31.0,23.5,05.2,0000.0,0001.49,0000.93,0000.85
2022-02-28 13:40:00,,0831.0,5.00,0.00,21.9,22.0,00.0,31.0,23.8,05.1,0000.0,0001.49,0000.93,0000.83
2022-02-28 13:41:00,,0831.0,4.99,0.00,22.1,22.7,00.0,31.0,24.0,05.0,0000.0,0001.43,0000.89,0000.81
2022-02-28 13:42:00,,0831.0,4.99,0.00,22.2,22.7,00.0,31.1,24.2,04.9,0000.0,0001.41,0000.87,0000.79
2022-02-28 13:43:00,,0831.0,5.00,0.00,22.2,22.5,00.0,31.1,24.1,04.9,0000.0,0001.43,0000.88,0000.77
2022-02-28 13:44:00,,0831.0,5.02,0.00,22.2,22.3,00.0,31.1,24.0,05.0,0000.0,0001.44,0000.86,0000.75
2022-02-28 13:45:00,,0831.0,4.99,0.00,22.2,22.1,00.0,31.1,24.0,05.0,0000.0,0001.46,0000.82,0000.71
2022-02-28 13:46:00,,0831.0,5.01,0.00,22.2,21.9,00.0,31.1,24.0,04.9,0000.0,0001.43,0000.81,0000.70
2022-02-28 13:47:00,,0831.0,4.99,0.00,22.1,21.8,00.0,31.1,23.9,05.0,0000.0,0001.13,0000.78,0000.67
2022-02-28 13:48:00,,0831.0,5.00,0.00,22.1,21.7,00.0,31.1,23.9,05.0,0000.0,0001.81,0000.78,0000.66
2022-02-28 13:49:00,,0831.0,5.01,0.00,22.1,21.6,00.0,31.1,23.9,04.8,0000.0,0001.93,0000.75,0000.65
2022-02-28 13:50:00,,0831.0,5.01,0.00,22.1,21.5,00.0,31.1,23.8,04.9,0000.0,0001.93,0000.74,0000.63
2022-02-28 13:51:00,,0831.0,4.99,0.00,22.1,21.5,00.0,31.1,23.8,04.9,0000.0,0001.92,0000.74,0000.63
2022-02-28 13:52:00,,0831.1,5.00,0.00,22.0,21.4,00.0,31.1,23.8,04.7,0000.0,0001.89,0000.73,0000.63
2022-02-28 13:53:00,,0831.1,5.00,0.00,22.0,21.4,00.0,31.1,23.7,04.6,0000.0,0001.91,0000.74,0000.63
2022-02-28 13:54:00,,0831.1,4.99,0.00,22.0,21.4,00.0,31.1,23.7,04.7,0000.0,0002.06,0000.77,0000.62
2022-02-28 13:55:00,,0831.2,5.01,0.00,22.0,21.4,00.0,31.1,23.7,04.7,0000.0,0002.09,0000.78,0000.62
2022-02-28 13:56:00,,0831.2,5.01,0.00,22.0,21.4,00.0,31.1,23.7,04.7,0000.0,0002.03,0000.78,0000.62
2022-02-28 13:57:00,,0831.2,4.99,0.00,22.0,21.4,00.0,31.1,23.8,04.8,0000.0,0002.05,0000.79,0000.62
2022-02-28 13:58:00,,0831.1,5.00,0.00,22.0,21.4,00.0,31.1,23.8,04.9,0000.0,0002.08,0000.80,0000.62
2022-02-28 13:59:00,,0831.2,5.01,0.00,22.0,21.4,00.0,31.1,23.8,05.5,0000.0,0001.34,0000.79,0000.62
